Starlink 30529

operational
NORAD ID: 58047 Int'l Des: 2023-156 Owner: SPXS Country: US Constellation: starlink
LEOCIRCULAR

关于 Starlink 30529

正在加载描述...

实时位置

正在加载3D地球...

即将过境

高度历史

Altitude vs Time

uPlot chart will show altitude changes over time

两行轨道根数

1 58047U 23156V 25259.26798760 .00000393 00000-0 25403-4 0 9992
2 58047 53.1644 258.6571 0000916 63.4000 296.7094 15.30190105108272
Epoch: Sep 16, 2025 • Age: 5 hours

当前状态

高度 485.6 km
速度 7.62 km/s
星下点 -32.58°S, 69.45°E
发射日期 Oct 9, 2023
运行时间 1.9 years
类型 internet

技术详情

分类 Payload
质量 730.00 kg
干质量 700.00 kg
总质量 730.00 kg
长度 0.30 m
直径 4.10 m
跨度 29.00 m
形状 Box + pan
制造商 SPXS
平台类型 Starlink V2M
阶段状态 In Orbit
所有者/国家 SPXS/US

大型星座

Loading constellations...